Location: Newark
(44.4156°N, 12.1972°E)
Time: 10:22:44
(UTC+00:00)

STARLINK-1095 - Pass Details

Date: 31 January 2020
Orbit: 348 x 351 km, 53.0° (Epoch: 22 February)

Event Time Altitude Azimuth Distance (km) Brightness Sun altitude
Rises 18:27:23 0° 295° (WNW) 2,176 7.7 -23.2°
Reaches altitude 10° 18:29:37 10° 281° (W) 1,328 6.6 -23.6°
Enters shadow 18:31:43 24° 237° (WSW) 798 5.0 -23.9°
